TimeCDT,TemperatureF,Dew PointF,Humidity,Sea Level PressureIn,VisibilityMPH,Wind Direction,Wind SpeedMPH,Gust SpeedMPH,PrecipitationIn,Events,Conditions,WindDirDegrees,DateUTC
12:52 AM,60.1,51.1,72,30.07,10.0,South,6.9,-,N/A,,Clear,170,2012-09-11 05:52:00
1:52 AM,60.1,51.1,72,30.07,10.0,South,3.5,-,N/A,,Clear,180,2012-09-11 06:52:00
2:52 AM,59.0,51.1,75,30.06,10.0,South,6.9,-,N/A,,Clear,180,2012-09-11 07:52:00
3:52 AM,60.1,52.0,75,30.06,10.0,South,9.2,-,N/A,,Clear,190,2012-09-11 08:52:00
4:52 AM,59.0,52.0,78,30.06,10.0,South,9.2,-,N/A,,Clear,180,2012-09-11 09:52:00
5:52 AM,57.0,52.0,83,30.08,10.0,South,4.6,-,N/A,,Clear,170,2012-09-11 10:52:00
6:52 AM,55.9,51.1,84,30.10,10.0,South,4.6,-,N/A,,Clear,170,2012-09-11 11:52:00
7:52 AM,61.0,54.0,78,30.11,10.0,SSW,6.9,-,N/A,,Clear,200,2012-09-11 12:52:00
8:52 AM,66.0,55.9,70,30.11,10.0,South,6.9,-,N/A,,Clear,190,2012-09-11 13:52:00
9:52 AM,71.1,57.0,61,30.11,10.0,SW,13.8,20.7,N/A,,Clear,220,2012-09-11 14:52:00
10:52 AM,75.0,57.9,55,30.10,10.0,SSW,12.7,19.6,N/A,,Clear,200,2012-09-11 15:52:00
11:52 AM,78.1,57.9,50,30.09,10.0,SSW,15.0,19.6,N/A,,Clear,210,2012-09-11 16:52:00
12:52 PM,80.1,59.0,48,30.07,10.0,South,12.7,-,N/A,,Clear,180,2012-09-11 17:52:00
1:52 PM,82.0,57.9,44,30.05,10.0,South,13.8,20.7,N/A,,Clear,190,2012-09-11 18:52:00
2:52 PM,82.9,59.0,44,30.03,10.0,SSW,9.2,-,N/A,,Clear,200,2012-09-11 19:52:00
3:52 PM,82.9,57.9,42,30.01,10.0,South,13.8,20.7,N/A,,Clear,170,2012-09-11 20:52:00
4:52 PM,82.0,55.9,41,30.00,10.0,South,16.1,21.9,N/A,,Clear,180,2012-09-11 21:52:00
5:52 PM,80.6,55.4,42,30.00,10.0,South,9.2,-,N/A,,Clear,180,2012-09-11 22:52:00
6:52 PM,73.0,55.9,55,30.00,10.0,SSE,5.8,-,N/A,,Clear,160,2012-09-11 23:52:00
7:52 PM,72.0,55.9,57,30.00,10.0,South,6.9,-,N/A,,Clear,180,2012-09-12 00:52:00
8:52 PM,72.0,55.0,55,30.01,10.0,South,8.1,-,N/A,,Clear,180,2012-09-12 01:52:00
9:52 PM,71.1,55.0,57,30.03,10.0,South,11.5,-,N/A,,Clear,180,2012-09-12 02:52:00
10:52 PM,69.1,55.9,63,30.04,10.0,South,10.4,-,N/A,,Clear,180,2012-09-12 03:52:00
11:52 PM,68.0,55.9,65,30.05,10.0,South,8.1,-,N/A,,Clear,180,2012-09-12 04:52:00